[[{"header":{"parameterUnit":"m.s-1","parameterCategory":1,"la1":30.2991,"la2":30.254,"lo1":-89.0895,"lo2":-89.0444,"dy":0.0017,"dx":0.0017,"nx":28,"ny":28,"refTime":"2023-09-13T21:00:00:Z","depth":0,"parameterNumber":2,"parameterNumberName":"U-component_of_WINDS"},"data":[0,0,0,0,0,0,0,0,0,0,0,0,0,0,0,0,0,0,0,0,0,0,0,0,0,0,0,0,0,0,0,0,0,0,0,0,0,0,0,0,0,0,0,0,0,0,0,0,0,0,0,0,0,0,0,0,0,0,-2.9123,-2.9123,0,-2.9125,-2.9125,-2.9125,-2.9054,-2.9052,-2.905,-2.9048,-2.905,-2.9052,-2.9054,0,0,0,0,0,0,0,0,0,0,0,0,0,-2.9057,-2.9058,-2.9123,-2.9123,-2.9123,-2.9125,-2.9125,-2.9125,-2.9054,-2.9052,-2.905,-2.9048,-2.905,-2.9052,-2.9054,0,0,0,0,0,0,0,0,0,0,0,0,0,-2.9075,-2.9059,-2.9123,-2.9088,-2.9085,-2.9125,-2.9125,-2.9125,-2.9055,-2.9052,-2.9049,-2.9046,-2.9049,-2.9052,-2.9054,-2.9128,0,0,-2.9062,-2.9064,0,0,0,0,0,0,0,0,-2.9074,-2.9077,-2.9093,-2.909,-2.9087,-2.9086,-2.9102,-2.9126,-2.9056,-2.9066,-2.9048,-2.9045,-2.9064,-2.9066,-2.9072,-2.9128,-2.9128,-2.9063,-2.9064,-2.9066,-2.9066,0,0,0,0,0,0,0,-2.9073,-2.9077,-2.9124,-2.9093,-2.909,-2.9072,-2.9071,-2.9106,-2.9081,-2.9065,-2.906,-2.9061,-2.9062,-2.907,-2.9072,-2.9128,-2.9063,-2.9065,-2.9067,-2.9068,-2.9242,-2.9245,0,0,0,0,0,0,-2.9076,-2.9076,-2.9124,-2.9124,-2.9073,-2.9075,-2.9075,-2.9089,-2.9081,-2.9077,-2.9064,-2.9058,-2.9067,-2.9069,-2.9072,-2.9155,-2.9066,-2.9068,-2.907,-2.9239,-2.9243,-2.9246,0,0,0,0,0,0,-2.9075,-2.9081,-2.9123,-2.9099,-2.9103,-2.9079,-2.9097,-2.9091,-2.9098,-2.908,-2.9075,-2.9076,-2.9064,-2.9068,-2.9114,-2.9154,-2.9069,-2.9072,-2.9236,-2.924,-2.9244,-2.9324,0,0,0,0,0,0,-2.9074,-2.9081,-2.9109,-2.91,-2.9104,-2.9166,-2.9099,-2.9093,-2.9103,-2.9096,-2.909,-2.9086,-2.9063,-2.911,-2.9117,-2.9157,-2.9074,-2.9232,-2.9238,-2.9243,-2.9318,-2.9331,-2.9342,0,0,0,0,0,-2.9072,-2.9132,-2.9111,-2.9117,-2.9139,-2.9169,-2.9171,-2.9143,-2.9107,-2.9134,-2.9122,-2.9086,-2.915,-2.9116,-2.9122,-2.9164,-2.9229,-2.9236,-2.9243,-2.9313,-2.9329,-2.9342,0,0,0,0,0,0,-2.9146,-2.913,-2.9106,-2.9166,-2.9169,-2.9157,-2.919,-2.9161,-2.9174,-2.9167,-2.9131,-2.913,-2.9182,-2.9178,-2.914,-2.9234,-2.9183,-2.9191,-2.9234,-2.9249,-2.9261,-2.9259,-2.9076,0,0,0,0,0,-2.917,-2.9196,-2.918,-2.9234,-2.9237,-2.9214,-2.9226,-2.9204,-2.9206,-2.9207,-2.9198,-2.9201,-2.9221,-2.9235,-2.9253,-2.9318,-2.9315,-2.935,-2.9362,-2.9372,-2.9379,-2.9411,-2.9426,-2.9268,-2.9268,-2.9268,0,0,-2.9218,-2.9213,-2.9231,-2.9249,-2.9249,-2.9275,-2.9215,-2.9247,-2.9266,-2.9211,-2.9253,-2.9248,-2.9249,-2.9304,-2.9328,-2.9302,-2.9422,-2.9381,-2.9389,-2.939,-2.9419,-2.9434,-2.9448,-2.9273,-2.9272,-2.9271,0,0,-2.9319,-2.9319,-2.9362,-2.9364,-2.9365,-2.9349,-2.936,-2.9352,-2.9345,-2.9388,-2.9347,-2.937,-2.9406,-2.9408,-2.9414,-2.9517,-2.9483,-2.9524,-2.9586,-2.9618,-2.963,-2.9641,-2.9675,-2.9688,-2.9531,-2.9532,-2.9532,0,-2.9379,-2.9418,-2.9389,-2.9422,-2.9431,-2.9383,-2.9426,-2.9429,-2.9436,-2.9443,-2.9414,-2.9458,-2.9456,-2.951,-2.9535,-2.9542,-2.9552,-2.9523,-2.9631,-2.9642,-2.9651,-2.9683,-2.9697,-2.9536,-2.9536,-2.9535,-2.9535,0,-2.9491,-2.9519,-2.9554,-2.9561,-2.9574,-2.9613,-2.9588,-2.9605,-2.9582,-2.9569,-2.9612,-2.9608,-2.9623,-2.9636,-2.9614,-2.9687,-2.967,-2.9637,-2.9585,-2.9671,-2.9701,-2.9713,-2.9543,-2.9541,-2.954,-2.9539,0,0,-2.9637,-2.9628,-2.9641,-2.9643,-2.9641,-2.9662,-2.9698,-2.9713,-2.9727,-2.9734,-2.9763,-2.9795,-2.9764,-2.9771,-2.9749,-2.9778,-2.9857,-2.9741,-2.974,-2.976,-2.9934,-2.9957,-2.9972,-2.9836,-2.9839,-2.984,-2.9933,0,-2.9733,-2.9794,-2.9768,-2.9831,-2.9856,-2.9812,-2.9843,-2.9845,-2.9835,-2.9854,-2.9842,-2.9865,-2.9824,-2.9827,-2.9854,-2.9842,-2.9891,-2.9835,-2.9861,-2.9862,-2.9858,-2.9988,-3.0012,-3.01,-2.9945,-2.9947,-2.9948,0,-2.9852,-2.9864,-2.9929,-2.9922,-2.9931,-2.996,-2.9971,-2.9991,-2.9992,-2.9982,-2.999,-2.9963,-2.9997,-2.9948,-2.9994,-2.9957,-2.9966,-2.9962,-2.9965,-2.9964,-2.9908,-2.9987,-3.0127,-3.0139,-2.9967,-2.9965,-2.9964,0,-2.9949,-2.9981,-3.0024,-3.0027,-3.0021,-3.0042,-3.004,-3.0039,-3.0049,-3.006,-3.0066,-3.0081,-3.0088,-3.01,-3.0076,-3.0043,-3.0125,-3.0075,-3.0117,-3.0117,-3.0133,-3.0132,-3.0274,-3.0145,-3.0145,-3.0145,-3.0144,0,-3.0057,-3.0098,-3.0067,-3.0093,-3.0137,-3.0108,-3.0153,-3.0147,-3.0146,-3.017,-3.0134,-3.0156,-3.0126,-3.0146,-3.0128,-3.0168,-3.0172,-3.0164,-3.0159,-3.0166,-3.0166,-3.0169,-3.0161,-3.0148,-3.0147,-3.0147,-3.0146,0,-3.0171,-3.0152,-3.0195,-3.0186,-3.0184,-3.0217,-3.0209,-3.0232,-3.022,-3.025,-3.0256,-3.0236,-3.0258,-3.0236,-3.0257,-3.0245,-3.0298,-3.0285,-3.0297,-3.0292,-3.0334,-3.033,-3.048,-3.0497,-3.0361,-3.0362,-3.0363,0,-3.0239,-3.027,-3.0263,-3.0277,-3.0277,-3.0299,-3.0309,-3.0283,-3.0295,-3.0299,-3.0322,-3.034,-3.0353,-3.039,-3.0377,-3.0392,-3.0378,-3.043,-3.0379,-3.0385,-3.0375,-3.0372,-3.0374,-3.0438,-3.044,-3.0441,-3.0443,0,-3.0362,-3.0351,-3.0367,-3.0381,-3.0394,-3.0404,-3.041,-3.0423,-3.0396,-3.0411,-3.0433,-3.0443,-3.0464,-3.0482,-3.0494,-3.0491,-3.0462,-3.0459,-3.0469,-3.0475,-3.0479,-3.0475,-3.0321,-3.0455,-3.0454,-3.0453,-3.0452,-3.0452,-3.0453,-3.0477,-3.0476,-3.0496,-3.0498,-3.0505,-3.0526,-3.0517,-3.0534,-3.0548,-3.0532,-3.0558,-3.0559,-3.0571,-3.0572,-3.0592,-3.057,-3.0585,-3.0588,-3.0592,-3.0597,-3.048,-3.0595,-3.0594,-3.0594,-3.0593,-3.0593,0,-3.0571,-3.0568,-3.0587,-3.0597,-3.0612,-3.0585,-3.059,-3.0605,-3.0628,-3.0631,-3.0645,-3.0669,-3.0687,-3.0676,-3.0691,-3.0709,-3.0696,-3.0714,-3.071,-3.071,-3.0617,-3.0605,-3.0724,-3.0724,-3.0724,-3.0724,-3.0724,-3.0724,-3.0634,-3.0673,-3.0662,-3.0702,-3.0699,-3.0724,-3.0729,-3.0735,-3.0737,-3.0766,-3.0781,-3.0774,-3.0771,-3.0786,-3.0801,-3.0797,-3.0803,-3.0825,-3.0817,-3.073,-3.0717,-3.0704,-3.0693,-3.0828,-3.0828,-3.0907,-3.0908,-3.0909]},{"header":{"parameterUnit":"m.s-1","parameterCategory":1,"la1":30.2991,"la2":30.254,"lo1":-89.0895,"lo2":-89.0444,"dy":0.0017,"dx":0.0017,"nx":28,"ny":28,"refTime":"2023-09-13T21:00:00:Z","depth":0,"parameterNumber":3,"parameterNumberName":"V-component_of_WINDS"},"data":[0,0,0,0,0,0,0,0,0,0,0,0,0,0,0,0,0,0,0,0,0,0,0,0,0,0,0,0,0,0,0,0,0,0,0,0,0,0,0,0,0,0,0,0,0,0,0,0,0,0,0,0,0,0,0,0,0,0,-1.0284,-1.0284,0,-1.0345,-1.0346,-1.0346,-1.0381,-1.0382,-1.0382,-1.0382,-1.0442,-1.0444,-1.0445,0,0,0,0,0,0,0,0,0,0,0,0,0,-1.0192,-1.0194,-1.0283,-1.0284,-1.0285,-1.0345,-1.0346,-1.0347,-1.0381,-1.0382,-1.0382,-1.0382,-1.0442,-1.0444,-1.0446,0,0,0,0,0,0,0,0,0,0,0,0,0,-1.0241,-1.0194,-1.0283,-1.031,-1.0313,-1.0345,-1.0346,-1.0347,-1.0381,-1.0382,-1.0382,-1.0382,-1.0441,-1.0444,-1.0446,-1.0456,0,0,-1.0453,-1.0454,0,0,0,0,0,0,0,0,-1.0238,-1.0244,-1.0305,-1.0308,-1.0311,-1.0356,-1.0336,-1.0383,-1.0381,-1.0355,-1.0382,-1.0382,-1.0413,-1.0418,-1.0429,-1.0459,-1.0461,-1.0453,-1.0454,-1.0455,-1.0456,0,0,0,0,0,0,0,-1.0234,-1.0241,-1.0308,-1.0306,-1.031,-1.0317,-1.0324,-1.0345,-1.0382,-1.0357,-1.036,-1.0367,-1.0415,-1.0427,-1.0431,-1.0462,-1.0453,-1.0455,-1.0456,-1.0457,-1.0501,-1.0501,0,0,0,0,0,0,-1.0227,-1.0238,-1.0306,-1.031,-1.0274,-1.0319,-1.0327,-1.0341,-1.0382,-1.0389,-1.0367,-1.0368,-1.0423,-1.0428,-1.0433,-1.0447,-1.0455,-1.0457,-1.0459,-1.0502,-1.0501,-1.0501,0,0,0,0,0,0,-1.0225,-1.0233,-1.0303,-1.0275,-1.0284,-1.032,-1.0336,-1.0342,-1.0354,-1.0389,-1.0396,-1.0372,-1.0423,-1.043,-1.045,-1.0449,-1.0458,-1.046,-1.0502,-1.0502,-1.0501,-1.0474,0,0,0,0,0,0,-1.0222,-1.0232,-1.0237,-1.0275,-1.0286,-1.032,-1.0336,-1.0343,-1.0358,-1.0361,-1.0396,-1.0402,-1.0424,-1.0446,-1.0452,-1.0452,-1.0462,-1.0502,-1.0502,-1.0501,-1.0475,-1.0473,-1.0471,0,0,0,0,0,-1.0219,-1.0227,-1.0237,-1.0245,-1.0293,-1.032,-1.0326,-1.0352,-1.0358,-1.0363,-1.0385,-1.0401,-1.0448,-1.0448,-1.0455,-1.0456,-1.0502,-1.0502,-1.0501,-1.0476,-1.0473,-1.0471,0,0,0,0,0,0,-1.0188,-1.0233,-1.0244,-1.0265,-1.0289,-1.0326,-1.0333,-1.0348,-1.037,-1.0372,-1.0401,-1.0409,-1.0426,-1.0443,-1.0442,-1.0467,-1.0477,-1.0478,-1.0455,-1.0453,-1.0451,-1.0446,-1.0464,0,0,0,0,0,-1.0184,-1.0203,-1.024,-1.0255,-1.0266,-1.0297,-1.031,-1.0327,-1.0353,-1.0363,-1.0387,-1.041,-1.043,-1.0442,-1.0463,-1.0478,-1.0485,-1.0482,-1.0479,-1.0478,-1.0478,-1.0486,-1.0484,-1.05,-1.05,-1.05,0,0,-1.0175,-1.0202,-1.0212,-1.0249,-1.027,-1.0288,-1.0306,-1.0324,-1.0337,-1.0365,-1.0386,-1.0404,-1.0431,-1.0448,-1.0457,-1.0463,-1.0475,-1.0477,-1.0475,-1.0477,-1.0485,-1.0483,-1.0482,-1.05,-1.05,-1.05,0,0,-1.0168,-1.0191,-1.0205,-1.0225,-1.0255,-1.0276,-1.0279,-1.0313,-1.0327,-1.0347,-1.0368,-1.0384,-1.0418,-1.0436,-1.045,-1.0448,-1.0462,-1.0453,-1.0442,-1.045,-1.0448,-1.0447,-1.0445,-1.0445,-1.0454,-1.0454,-1.0454,0,-1.0154,-1.0183,-1.021,-1.0227,-1.0242,-1.0268,-1.0282,-1.0299,-1.0334,-1.0343,-1.035,-1.0392,-1.0412,-1.0433,-1.0433,-1.0443,-1.0447,-1.045,-1.0446,-1.0446,-1.0445,-1.0444,-1.0443,-1.0452,-1.0452,-1.0453,-1.0453,0,-1.0162,-1.0182,-1.0189,-1.0223,-1.0238,-1.0253,-1.0282,-1.0294,-1.0309,-1.0329,-1.0348,-1.0374,-1.0399,-1.0405,-1.042,-1.0428,-1.043,-1.0441,-1.0452,-1.0442,-1.0441,-1.0441,-1.045,-1.0451,-1.0451,-1.0452,0,0,-1.0139,-1.0186,-1.0189,-1.0204,-1.0238,-1.0253,-1.0268,-1.0293,-1.0303,-1.0326,-1.0338,-1.0366,-1.0375,-1.0391,-1.0408,-1.0414,-1.0409,-1.0424,-1.0425,-1.042,-1.0417,-1.0409,-1.0408,-1.0419,-1.0419,-1.0419,-1.0414,0,-1.0137,-1.0167,-1.0191,-1.0211,-1.0229,-1.0253,-1.0266,-1.0288,-1.0305,-1.0322,-1.0341,-1.0359,-1.0371,-1.0381,-1.0388,-1.0408,-1.0409,-1.0409,-1.043,-1.043,-1.0422,-1.0407,-1.0399,-1.0394,-1.0414,-1.0414,-1.0414,0,-1.0139,-1.0161,-1.0183,-1.0214,-1.0223,-1.0234,-1.0258,-1.0274,-1.0298,-1.031,-1.0326,-1.0344,-1.036,-1.0368,-1.0389,-1.0389,-1.0398,-1.0409,-1.041,-1.0413,-1.0422,-1.0409,-1.0393,-1.0391,-1.0414,-1.0414,-1.0414,0,-1.0119,-1.0154,-1.0172,-1.0184,-1.0221,-1.0228,-1.0243,-1.0268,-1.0281,-1.0301,-1.0309,-1.0331,-1.0343,-1.0358,-1.0381,-1.0385,-1.0399,-1.041,-1.0408,-1.0408,-1.041,-1.041,-1.0395,-1.0417,-1.0417,-1.0417,-1.0417,0,-1.0114,-1.0127,-1.0163,-1.0174,-1.0188,-1.0214,-1.0227,-1.0244,-1.0265,-1.0278,-1.03,-1.0312,-1.0341,-1.0356,-1.0373,-1.0387,-1.0392,-1.0401,-1.0406,-1.0399,-1.0398,-1.0406,-1.0407,-1.0417,-1.0417,-1.0417,-1.0417,0,-1.0095,-1.012,-1.014,-1.0173,-1.0182,-1.019,-1.0218,-1.0228,-1.0246,-1.0263,-1.0268,-1.0296,-1.0315,-1.0338,-1.0364,-1.0376,-1.0387,-1.0394,-1.0379,-1.0382,-1.0379,-1.0378,-1.0368,-1.0367,-1.039,-1.039,-1.039,0,-1.0091,-1.0101,-1.0134,-1.0145,-1.016,-1.0177,-1.019,-1.0215,-1.0228,-1.0255,-1.0261,-1.0281,-1.0299,-1.0327,-1.0349,-1.0368,-1.0375,-1.037,-1.0378,-1.0371,-1.0374,-1.0373,-1.0374,-1.0368,-1.0368,-1.0368,-1.0367,0,-1.0079,-1.0091,-1.0109,-1.0131,-1.0146,-1.0165,-1.0184,-1.0191,-1.022,-1.0233,-1.0252,-1.0265,-1.0291,-1.031,-1.0332,-1.0346,-1.0361,-1.0364,-1.0365,-1.0358,-1.0349,-1.0353,-1.0373,-1.0365,-1.0365,-1.0365,-1.0365,-1.0365,-1.0067,-1.0076,-1.0101,-1.012,-1.0137,-1.0154,-1.0165,-1.0184,-1.0201,-1.0224,-1.0238,-1.0256,-1.0278,-1.0309,-1.0322,-1.0336,-1.0342,-1.0343,-1.0343,-1.0343,-1.034,-1.0347,-1.034,-1.034,-1.034,-1.034,-1.034,0,-1.0056,-1.0073,-1.009,-1.0116,-1.0131,-1.0144,-1.0165,-1.0176,-1.0192,-1.0211,-1.0228,-1.0248,-1.0266,-1.0289,-1.0308,-1.0315,-1.0322,-1.0319,-1.0318,-1.0321,-1.0334,-1.0332,-1.0312,-1.0312,-1.0312,-1.0312,-1.0312,-1.0312,-1.0053,-1.0069,-1.0082,-1.0106,-1.0123,-1.0141,-1.0152,-1.0167,-1.0182,-1.0205,-1.022,-1.0235,-1.0255,-1.0275,-1.0291,-1.0298,-1.0303,-1.0298,-1.0306,-1.0318,-1.032,-1.0323,-1.032,-1.0299,-1.0299,-1.0292,-1.0292,-1.0291]}]]